Погода в Хапчеранге

Россия / Забайкальский край     49°42′16″N   112°23′32″E
темп.,
°C
ветер,
м/с
пор.,
м/с
влажн.,
%
обл.,
%
осадки,
мм/ч
давл.,
гПа
погр.,
м
28 февраля, вс
вс2800:00−22з23790 0.0 103720
03:00−23зсз33810 0.0 103822
06:00−25з22780 0.0 103820
09:00−25зюз12730 0.0 104020
12:00−19ююз226958 0.0 1038256
15:00−15ююз236645 0.0 1035429
18:00−16вюв118841 0.1 103654
21:00−19с119871 0.3 103920
1 марта, пн
пн100:00−22ссз119599 0.0 104120
03:00−22ссз228891 0.0 104120
06:00−25з118769 0.0 104020
09:00−25зюз118956 0.0 103920
12:00−19ююз22840 0.0 1035250
15:00−16юз237516 0.0 1029421
18:00−17юз22856 0.0 102724
21:00−21з12873 0.0 102820
2 марта, вт
вт200:00−22зюз11870 0.0 102720
03:00−22зюз128717 0.0 102620
06:00−22зюз118799 0.0 102320
09:00−21юз228499 0.0 102020
12:00−15ююз237337 0.0 1015229
15:00−11ююз237121 0.0 1012266
18:00−12ююз22830 0.0 101024
21:00−15з127737 0.0 101220
3 марта, ср
ср300:00−13зюз2279100 0.0 101120
03:00−14з2281100 0.0 101020
06:00−12зюз118097 0.0 101021
09:00−14з228280 0.0 101220
12:00−8юз35800 0.0 1009280
15:00−5юз48781 0.0 1007660
18:00−5сз367197 0.2 1007102
21:00−10сз348091 0.2 101158
4 марта, чт
чт400:00−14сз338114 0.0 101421
03:00−15зсз118129 0.0 101720
06:00−16сз2281100 0.0 101924
09:00−20сз227879 0.0 102226
12:00−13сз495421 0.0 10231195
15:00−12сз6115511 0.0 10241656
18:00−14сз36684 0.0 1026160
21:00−19зсз337344 0.0 103226